EW2485 Weather Reports


Display with metric or nautical units.
time (UTC)temp
F
wind
direction
speed
MPH
gust
MPH
rain 1hr
in
rain 24hr
in
rain mn
in
humidity
%
barometer
mb
20260903083022 65 89 0.0 2.0 0.01 1.35 0.06 96 1013.2
20260903081538 65 223 1.0 5.0 0.01 1.35 0.06 96 1013.3
20260903080055 65 178 2.0 7.0 0.01 1.35 0.06 95 1013.4
20260903074515 65 184 2.0 9.0 0.01 1.35 0.06 95 1013.4
20260903073039 65 178 1.0 8.0 0.00 1.34 0.05 95 1013.7
20260903071555 65 184 3.0 10.0 0.00 1.34 0.05 95 1013.5
20260903070029 65 178 3.0 9.0 0.00 1.34 0.05 95 1013.7
20260903064518 65 168 1.0 9.0 0.00 1.34 0.05 95 1013.5
20260903063052 66 170 4.0 8.0 0.00 1.34 0.05 95 1013.6
20260903061531 66 117 2.0 7.0 0.00 1.34 0.05 95 1013.8
20260903054521 66 187 3.0 8.0 0.01 1.34 0.05 95 1014.0
20260903053044 66 167 4.0 11.0 0.01 1.34 0.05 95 1013.8
20260903051606 66 152 4.0 13.0 0.03 1.34 0.05 95 1013.7
20260903050025 66 174 3.0 7.0 0.05 1.34 0.05 95 1014.0
20260903044543 66 147 5.0 11.0 0.06 1.33 0.04 95 1014.0
20260903043013 66 171 4.0 16.0 0.13 1.32 0.04 95 1014.0
20260903041535 66 178 5.0 13.0 0.20 1.31 0.02 95 1014.1
20260903040056 65 172 3.0 8.0 0.19 1.29 1.29 95 1014.4
20260903034514 66 178 3.0 8.0 0.19 1.26 1.26 95 1015.5
20260903033052 66 178 3.0 9.0 0.16 1.20 1.20 95 1016.2
20260903031522 66 223 2.0 10.0 0.10 1.11 1.11 94 1014.2
20260903030046 66 178 3.0 10.0 0.13 1.10 1.10 94 1014.2
20260903024554 65 173 4.0 12.0 0.14 1.07 1.07 94 1014.8
20260903023033 65 169 3.0 11.0 0.19 1.04 1.04 94 1015.4
20260903021510 65 178 0.0 3.0 0.62 1.01 1.01 93 1015.4
20260903020046 65 269 1.0 3.0 0.57 0.97 0.97 93 1015.6
20260903014524 66 173 3.0 12.0 0.54 0.93 0.93 92 1015.0
20260903013044 67 149 2.0 22.0 0.46 0.85 0.85 91 1016.6
20260903011510 70 343 4.0 10.0 0.01 0.39 0.39 93 1016.3
20260903010035 70 150 4.0 13.0 0.01 0.39 0.39 93 1015.0
20260903004553 70 144 5.0 12.0 0.01 0.39 0.39 93 1014.6
20260903003018 71 178 6.0 18.0 0.01 0.39 0.39 92 1014.1
20260903001542 71 146 8.0 16.0 0.00 0.38 0.38 92 1014.0
20260903000104 71 161 6.0 13.0 0.00 0.38 0.38 92 1014.1
20260903000005 71 135 6.0 13.0 0.00 0.38 0.38 92 1014.1
20260902234523 71 131 6.0 14.0 0.00 0.38 0.38 92 1014.7
20260902233057 72 127 5.0 19.0 0.00 0.38 0.38 92 1014.2
20260902231539 72 79 7.0 14.0 0.00 0.38 0.38 91 1013.8
20260902230026 73 175 7.0 15.0 0.00 0.38 0.38 91 1014.2
20260902224606 73 151 5.0 15.0 0.00 0.38 0.38 91 1014.2
20260902223021 74 177 5.0 12.0 0.00 0.38 0.38 90 1013.9
20260902221537 74 217 6.0 17.0 0.00 0.38 0.38 90 1013.7
20260902220059 75 155 4.0 14.0 0.00 0.38 0.38 90 1013.9
20260902214532 75 146 6.0 12.0 0.00 0.38 0.38 89 1014.2
20260902213035 76 189 6.0 15.0 0.00 0.38 0.38 89 1014.5
20260902211554 75 181 7.0 13.0 0.00 0.38 0.38 90 1014.5
20260902210015 75 202 4.0 14.0 0.00 0.38 0.38 90 1015.0
20260902204537 75 167 3.0 14.0 0.00 0.38 0.38 90 1015.1
20260902203007 75 190 5.0 17.0 0.00 0.38 0.38 89 1015.0
20260902201552 76 135 5.0 17.0 0.00 0.38 0.38 89 1014.7
20260902200035 76 115 5.0 15.0 0.00 0.38 0.38 89 1014.5
20260902194507 76 138 6.0 16.0 0.00 0.38 0.38 88 1014.6
20260902193035 77 142 6.0 14.0 0.00 0.38 0.38 89 1015.0
20260902191559 77 139 6.0 15.0 0.00 0.38 0.38 87 1015.5
20260902190023 76 183 5.0 12.0 0.00 0.38 0.38 89 1015.6
20260902184545 76 152 7.0 13.0 0.00 0.38 0.38 89 1015.7
20260902183013 75 143 4.0 11.0 0.00 0.38 0.38 91 1015.7
20260902181535 74 157 3.0 17.0 0.00 0.38 0.38 90 1015.6
20260902180059 75 213 3.0 18.0 0.00 0.38 0.38 90 1015.9
20260902180004 75 170 6.0 18.0 0.00 0.38 0.38 90 1015.9
20260902174536 75 120 5.0 13.0 0.00 0.38 0.38 90 1016.2
20260902173018 74 146 6.0 14.0 0.00 0.38 0.38 92 1016.3
20260902171547 72 192 6.0 15.0 0.00 0.38 0.38 92 1016.5
20260902170032 73 142 7.0 15.0 0.00 0.38 0.38 93 1016.7
20260902164555 72 143 4.0 12.0 0.00 0.38 0.38 92 1017.0
20260902163008 73 126 8.0 17.0 0.00 0.38 0.38 93 1017.0
20260902161531 73 145 7.0 14.0 0.00 0.38 0.38 95 1016.9
20260902154509 72 154 3.0 5.0 0.07 0.38 0.38 97 1016.7
20260902153038 71 165 2.0 5.0 0.23 0.38 0.38 97 1016.6
20260902151546 69 171 0.0 5.0 0.28 0.38 0.38 96 1016.6
20260902150007 68 161 2.0 14.0 0.32 0.36 0.36 95 1016.3
20260902144528 69 186 6.0 7.0 0.30 0.31 0.31 96 1017.7
20260902143103 69 186 5.0 10.0 0.15 0.15 0.15 96 1016.8
20260902143002 69 173 5.0 10.0 0.14 0.14 0.15 96 1016.6
20260902141526 69 186 4.0 9.0 0.09 0.09 0.09 96 1016.7
20260902140046 69 178 4.0 10.0 0.04 0.06 0.04 96 1016.6
20260902134504 69 188 4.0 16.0 0.01 0.03 0.01 96 1017.0
20260902133032 69 178 7.0 16.0 0.00 0.02 0.00 96 1017.3
20260902131552 70 193 3.0 12.0 0.00 0.02 0.00 96 1017.1
20260902130015 69 178 3.0 11.0 0.00 0.03 0.00 96 1016.7
20260902124606 69 193 4.0 8.0 0.00 0.03 0.00 96 1016.5
20260902123114 69 178 2.0 9.0 0.00 0.03 0.00 96 1016.4
20260902121516 69 191 8.0 9.0 0.00 0.03 0.00 96 1016.2
20260902120037 69 191 8.0 9.0 0.00 0.13 0.00 96 1016.2
20260902114556 69 191 8.0 9.0 0.00 0.13 0.00 97 1016.2
20260902113016 69 191 8.0 9.0 0.00 0.13 0.00 96 1016.1
20260902111545 69 191 8.0 9.0 0.00 0.13 0.00 97 1015.8
20260902104523 68 170 2.0 3.0 0.00 0.31 0.00 96 1015.8
20260902103047 68 191 3.0 8.0 0.00 0.31 0.00 97 1016.0
20260902101509 68 152 2.0 6.0 0.00 0.31 0.00 97 1016.2
20260902100053 67 169 2.0 8.0 0.00 0.35 0.00 97 1016.4
20260902094533 66 178 1.0 8.0 0.00 0.35 0.00 97 1016.2
20260902093018 65 1 0.0 3.0 0.00 0.35 0.00 96 1016.1
20260902091541 64 15 1.0 3.0 0.00 0.35 0.00 96 1016.1
20260902090055 63 25 2.0 3.0 0.00 0.35 0.00 95 1016.2
20260902084519 64 32 2.0 4.0 0.00 0.35 0.00 96 1016.3